When you browse on this site, cookies collect data to enhance your experience and personalize the content and advertising you see.
Visit our Privacy Policy to learn more. By continuing to use the site, you agree to this use of cookies and data.

Hourly Weather Abaete

Today, 14 August, Friday

Time Temperature Precipitation Wind Pressure Humidity
00:00 +21°C° 0 mm 1 mps 707 mmHg 65%
01:00 +20°C° 0 mm 1 mps 707 mmHg 69%
02:00 +20°C° 0 mm 1 mps 707 mmHg 73%
03:00 +19°C° 0 mm 1 mps 706 mmHg 77%
04:00 +19°C° 0 mm 1 mps 706 mmHg 79%
05:00 +18°C° 0 mm 1 mps 707 mmHg 82%
06:00 +18°C° 0 mm 1 mps 707 mmHg 84%
07:00 +20°C° 0 mm 1 mps 707 mmHg 75%
08:00 +22°C° 0 mm 1 mps 708 mmHg 66%
09:00 +25°C° 0 mm 1 mps 709 mmHg 56%
10:00 +27°C° 0 mm 2 mps 708 mmHg 49%
11:00 +29°C° 0 mm 2 mps 708 mmHg 41%
12:00 +31°C° 0 mm 2 mps 708 mmHg 33%
13:00 +32°C° 0 mm 2 mps 707 mmHg 31%
14:00 +32°C° 0 mm 2 mps 707 mmHg 29%
15:00 +34°C° 0 mm 2 mps 706 mmHg 27%
16:00 +31°C° 0 mm 2 mps 706 mmHg 31%
17:00 +29°C° 0 mm 1 mps 706 mmHg 34%
18:00 +27°C° 0 mm 1 mps 706 mmHg 37%
19:00 +26°C° 0 mm 1 mps 706 mmHg 40%
20:00 +25°C° 0 mm 2 mps 706 mmHg 42%
21:00 +24°C° 0 mm 2 mps 706 mmHg 45%
22:00 +23°C° 0 mm 2 mps 706 mmHg 49%
23:00 +22°C° 0 mm 1 mps 706 mmHg 54%

Tomorrow, 15 August, Saturday

Time Temperature Precipitation Wind Pressure Humidity
00:00 +21°C° 0 mm 1 mps 706 mmHg 59%
01:00 +20°C° 0 mm 1 mps 706 mmHg 62%
02:00 +20°C° 0 mm 1 mps 706 mmHg 65%
03:00 +19°C° 0 mm 1 mps 706 mmHg 69%
04:00 +19°C° 0 mm 1 mps 706 mmHg 71%
05:00 +18°C° 0 mm 1 mps 706 mmHg 73%
06:00 +18°C° 0 mm 1 mps 706 mmHg 76%
07:00 +20°C° 0 mm 1 mps 707 mmHg 68%
08:00 +21°C° 0 mm 2 mps 707 mmHg 61%
09:00 +24°C° 0 mm 2 mps 708 mmHg 54%
10:00 +26°C° 0 mm 2 mps 708 mmHg 47%
11:00 +28°C° 0 mm 2 mps 708 mmHg 41%
12:00 +31°C° 0 mm 2 mps 707 mmHg 34%
13:00 +31°C° 0 mm 2 mps 707 mmHg 32%
14:00 +32°C° 0 mm 2 mps 706 mmHg 30%
15:00 +34°C° 0 mm 2 mps 705 mmHg 27%
16:00 +31°C° 0 mm 2 mps 705 mmHg 31%
17:00 +29°C° 0 mm 1 mps 705 mmHg 34%
18:00 +27°C° 0 mm 1 mps 705 mmHg 38%
19:00 +26°C° 0 mm 1 mps 705 mmHg 40%
20:00 +25°C° 0 mm 1 mps 705 mmHg 41%
21:00 +24°C° 0 mm 1 mps 706 mmHg 43%
22:00 +24°C° 0 mm 1 mps 706 mmHg 45%
23:00 +23°C° 0 mm 1 mps 706 mmHg 47%

Day after tomorrow, 16 August, Sunday

Time Temperature Precipitation Wind Pressure Humidity
00:00 +22°C° 0 mm 1 mps 706 mmHg 49%
01:00 +22°C° 0 mm 1 mps 705 mmHg 51%
02:00 +21°C° 0 mm 1 mps 705 mmHg 52%
03:00 +20°C° 0 mm 1 mps 705 mmHg 54%
04:00 +20°C° 0 mm 1 mps 705 mmHg 56%
05:00 +19°C° 0 mm 1 mps 705 mmHg 57%
06:00 +19°C° 0 mm 1 mps 705 mmHg 59%
07:00 +20°C° 0 mm 2 mps 706 mmHg 54%
08:00 +23°C° 0 mm 2 mps 706 mmHg 49%
09:00 +26°C° 0 mm 3 mps 707 mmHg 44%
10:00 +28°C° 0 mm 3 mps 707 mmHg 40%
11:00 +30°C° 0 mm 3 mps 706 mmHg 36%
12:00 +33°C° 0 mm 4 mps 706 mmHg 32%
13:00 +34°C° 0 mm 3 mps 705 mmHg 29%
14:00 +35°C° 0 mm 3 mps 705 mmHg 26%
15:00 +36°C° 0 mm 2 mps 704 mmHg 23%
16:00 +34°C° 0 mm 2 mps 704 mmHg 27%
17:00 +31°C° 0 mm 2 mps 704 mmHg 30%
18:00 +29°C° 0 mm 1 mps 703 mmHg 33%
19:00 +28°C° 0 mm 1 mps 704 mmHg 34%
20:00 +27°C° 0 mm 1 mps 704 mmHg 36%
21:00 +26°C° 0 mm 1 mps 704 mmHg 37%
22:00 +25°C° 0 mm 1 mps 704 mmHg 39%
23:00 +24°C° 0 mm 2 mps 704 mmHg 42%

17 August, Monday

Time Temperature Precipitation Wind Pressure Humidity
00:00 +23°C° 0 mm 2 mps 704 mmHg 44%
01:00 +23°C° 0 mm 2 mps 704 mmHg 47%
02:00 +21°C° 0 mm 2 mps 704 mmHg 50%
03:00 +21°C° 0 mm 1 mps 703 mmHg 52%
04:00 +21°C° 0 mm 1 mps 703 mmHg 55%
05:00 +21°C° 0 mm 1 mps 704 mmHg 58%
06:00 +20°C° 0 mm 1 mps 704 mmHg 60%
07:00 +21°C° 0 mm 2 mps 705 mmHg 56%
08:00 +25°C° 0 mm 3 mps 705 mmHg 51%
09:00 +27°C° 0 mm 3 mps 706 mmHg 47%
10:00 +29°C° 0 mm 4 mps 706 mmHg 41%
11:00 +32°C° 0 mm 4 mps 705 mmHg 36%
12:00 +35°C° 0 mm 5 mps 705 mmHg 30%
13:00 +36°C° 0 mm 4 mps 705 mmHg 28%
14:00 +36°C° 0 mm 4 mps 704 mmHg 25%
15:00 +37°C° 0 mm 4 mps 703 mmHg 23%
16:00 +35°C° 0 mm 3 mps 703 mmHg 26%
17:00 +34°C° 0 mm 2 mps 703 mmHg 29%
18:00 +31°C° 0 mm 2 mps 703 mmHg 31%
19:00 +30°C° 0 mm 2 mps 703 mmHg 33%
20:00 +29°C° 0 mm 2 mps 703 mmHg 35%
21:00 +27°C° 0 mm 2 mps 703 mmHg 37%
22:00 +27°C° 0 mm 2 mps 703 mmHg 40%
23:00 +27°C° 0 mm 2 mps 703 mmHg 44%

18 August, Tuesday

Time Temperature Precipitation Wind Pressure Humidity
00:00 +26°C° 0 mm 3 mps 704 mmHg 47%
01:00 +25°C° 0 mm 3 mps 703 mmHg 51%
02:00 +25°C° 0 mm 2 mps 703 mmHg 54%
03:00 +24°C° 0 mm 2 mps 703 mmHg 58%
04:00 +23°C° 0 mm 2 mps 703 mmHg 63%
05:00 +22°C° 0 mm 1 mps 703 mmHg 67%
06:00 +21°C° 0 mm 1 mps 703 mmHg 72%
07:00 +23°C° 0 mm 1 mps 704 mmHg 66%
08:00 +25°C° 0 mm 2 mps 705 mmHg 59%
09:00 +27°C° 0 mm 2 mps 706 mmHg 53%
10:00 +29°C° 0 mm 3 mps 705 mmHg 47%
11:00 +31°C° 0 mm 3 mps 705 mmHg 40%
12:00 +34°C° 0 mm 4 mps 705 mmHg 34%
13:00 +35°C° 0 mm 4 mps 704 mmHg 32%
14:00 +36°C° 0 mm 4 mps 704 mmHg 29%
15:00 +37°C° 0 mm 4 mps 703 mmHg 27%
16:00 +35°C° 0 mm 4 mps 703 mmHg 29%
17:00 +34°C° 0 mm 3 mps 703 mmHg 32%
18:00 +31°C° 0 mm 2 mps 703 mmHg 34%
19:00 +30°C° 0 mm 3 mps 704 mmHg 38%
20:00 +29°C° 0 mm 3 mps 704 mmHg 42%
21:00 +28°C° 0 mm 3 mps 704 mmHg 45%
22:00 +27°C° 0 mm 3 mps 704 mmHg 49%
23:00 +26°C° 0 mm 3 mps 704 mmHg 52%

19 August, Wednesday

Time Temperature Precipitation Wind Pressure Humidity
00:00 +25°C° 0 mm 3 mps 704 mmHg 55%
01:00 +25°C° 0 mm 3 mps 704 mmHg 57%
02:00 +24°C° 0 mm 3 mps 704 mmHg 60%
03:00 +23°C° 0 mm 2 mps 704 mmHg 62%
04:00 +23°C° 0 mm 2 mps 704 mmHg 64%
05:00 +21°C° 0 mm 2 mps 705 mmHg 67%
06:00 +20°C° 0 mm 2 mps 705 mmHg 70%
07:00 +22°C° 0 mm 3 mps 705 mmHg 64%
08:00 +25°C° 0 mm 3 mps 706 mmHg 59%
09:00 +26°C° 0 mm 4 mps 707 mmHg 53%
10:00 +29°C° 0 mm 4 mps 706 mmHg 47%
11:00 +32°C° 0 mm 5 mps 706 mmHg 41%
12:00 +34°C° 0 mm 5 mps 706 mmHg 35%
13:00 +35°C° 0 mm 5 mps 705 mmHg 32%
14:00 +35°C° 0 mm 5 mps 704 mmHg 30%
15:00 +36°C° 0 mm 5 mps 704 mmHg 27%
16:00 +35°C° 0 mm 4 mps 704 mmHg 30%
17:00 +33°C° 0 mm 3 mps 704 mmHg 33%
18:00 +30°C° 0 mm 2 mps 704 mmHg 36%
19:00 +29°C° 0 mm 2 mps 704 mmHg 37%
20:00 +28°C° 0 mm 2 mps 704 mmHg 39%
21:00 +27°C° 0 mm 2 mps 705 mmHg 41%
22:00 +26°C° 0 mm 2 mps 704 mmHg 41%
23:00 +25°C° 0 mm 2 mps 704 mmHg 42%
Show more